Regional Weather Roundup
Issued by NWS Albany, NY

Home | Current Version | Previous Version | Text Only | Print | Product List | Glossary On
Versions: 1 2 3 4 5 6 7 8 9 10 11 12 13 14 15 16 17 18 19 20 21 22 23 24 25 26 27 28 29 30 31 32 33 34 35 36 37 38 39 40 41 42 43 44 45 46 47 48 49 50
000
ASUS41 KALY 171510
RWRALY

NEW YORK STATE HOURLY WEATHER ROUNDUP
NATIONAL WEATHER SERVICE ALBANY NY
1000 AM EST WED DEC 17 2014

NOTE: "FAIR" INDICATES FEW OR NO CLOUDS BELOW 12,000 FEET WITH NO
SIGNIFICANT WEATHER AND/OR NO OBSTRUCTIONS TO VISIBILITY.

NYZ032-033-038>043-046>054-057>066-NYZ062>081-171600-
EAST


CITY           SKY/WX    TMP DP  RH WIND       PRES   REMARKS
ALBANY         FOG       37  35  92 CALM      29.83S VSB 1
GLENS FALLS    LGT RAIN  36  34  92 CALM      29.82S VSB 1
POUGHKEEPSIE   CLOUDY    43  41  93 CALM      29.83S FOG
NEWBURGH       MOSUNNY   45  45 100 W9        29.84F
MONTGOMERY     MOSUNNY   48  41  76 NW13      29.82S
WHITE PLAINS   MOSUNNY   47  41  80 W13       29.82S
ISLIP          PTSUNNY   48  43  82 W10       29.82R
NEW YORK CITY  MOSUNNY   48  40  73 NW14G21   29.86R
CENTRAL PARK   SUNNY     48  40  73 VRB5      29.88R
$$

NYZ005>009-017-018-044>046-055-056-171600-
CENTRAL


CITY           SKY/WX    TMP DP  RH WIND       PRES   REMARKS
FULTON         LGT RAIN  40  37  89 W12       29.83R WCI  33
SYRACUSE       LGT RAIN  40  37  89 W14       29.84R WCI  32
ROME           LGT RAIN  40  39  97 CALM      29.84R
ELMIRA         LGT RAIN  41  36  82 W14       29.87R
BINGHAMTON     LGT RAIN  38  37  97 W9        29.83R WCI  31
MONTICELLO     CLOUDY    39  37  93 W9        29.84R WCI  33
$$

NYZ026>034-041>043-171600-
NORTH


CITY           SKY/WX    TMP DP  RH WIND       PRES   REMARKS
WATERTOWN      LGT RAIN  42  37  82 W13G21    29.80R
FORT DRUM      NOT AVBL
MASSENA        CLOUDY    34  33  96 E5        29.79S FOG     WCI  30
SARANAC LAKE   CLOUDY    34  33  96 CALM      29.74S FOG
PLATTSBURGH    CLOUDY    35  35 100 CALM      29.79S FOG
$$

NYZ001>004-010>016-019>021-171600-
WEST


CITY           SKY/WX    TMP DP  RH WIND       PRES   REMARKS
NIAGARA FALLS  LGT SNOW  35  33  92 SW14      29.89R FOG     WCI  26
BUFFALO        LGT SNOW  35  33  92 W18G29    29.89R FOG     WCI  24
DUNKIRK        FLURRIES  36  33  89 W16G30    29.95R WCI  26
JAMESTOWN      CLOUDY    32  28  86 W18G24    29.92R WCI  20
WELLSVILLE     LGT SNOW  34  31  88 W14       29.88R FOG     WCI  25
ROCHESTER      CLOUDY    40  34  79 W21G30    29.86R WCI  30
PENN YAN       CLOUDY    41  33  73 SW13      29.86R
$$

             KEY
       WCI = WIND CHILL INDEX
       VSB = VISIBILITY
       HX  = HEAT INDEX
$$



USA.gov is the U.S. government's official web portal to all federal, state and local government web resources and services.